Date String (YYYY-MM-DD hh:mm:ss) UTC,Instrument flags,Ambient pressure (hPa),Sample flow (lpm),Bypass flow (lpm),Sample temperature (°C),Ambient temperature (°C),ASC tube jacket temperature (°C),LED temperature (°C),Box temperature (°C),Sample RH (%),Span deviation,Mass concentration (μg/m³),Mass concentration (μg/m³),Mass concentration (μg/m³)
DateTimeUTC,F1_M11,P_M11,Q1_M11,Q2_M11,T1_M11,T2_M11,T3_M11,T4_M11,T5_M11,U1_M11,ZSPAN_M11,X0_M11,X2_M11,X1_M11
2022-11-09 22:00:00,,0811.7,5.00,0.00,24.9,23.7,00.0,33.6,26.9,15.4,-001.1,0020.84,0010.55,0009.34
2022-11-09 22:01:00,,0811.6,5.00,0.00,24.9,23.7,00.0,33.6,26.9,15.4,-000.8,0019.74,0010.59,0009.36
2022-11-09 22:02:00,,0811.6,5.00,0.00,24.9,23.7,00.0,33.6,26.9,15.4,-001.1,0019.72,0010.63,0009.37
2022-11-09 22:03:00,,0811.5,5.00,0.00,25.0,23.8,00.0,33.6,26.9,15.4,-001.4,0020.92,0010.69,0009.36
2022-11-09 22:04:00,,0811.4,4.99,0.00,25.0,23.8,00.0,33.7,26.9,15.5,-001.3,0021.54,0010.70,0009.36
2022-11-09 22:05:00,,0811.5,4.99,0.00,25.0,23.8,00.0,33.7,26.9,15.4,-001.5,0021.86,0010.78,0009.38
2022-11-09 22:06:00,,0811.6,5.02,0.00,25.0,23.8,00.0,33.7,26.9,15.4,-001.3,0021.75,0010.81,0009.41
2022-11-09 22:07:00,,0811.7,4.99,0.00,25.0,23.8,00.0,33.7,26.9,15.5,-001.0,0021.13,0010.83,0009.44
2022-11-09 22:08:00,,0811.7,4.99,0.00,25.0,23.8,00.0,33.7,27.0,15.5,-000.6,0021.14,0010.84,0009.46
2022-11-09 22:09:00,,0811.7,5.02,0.00,25.0,23.8,00.0,33.7,27.0,15.5,-000.7,0021.13,0010.88,0009.49
2022-11-09 22:10:00,,0811.7,5.01,0.00,25.0,23.8,00.0,33.7,27.0,15.5,-000.9,0020.77,0010.90,0009.52
2022-11-09 22:11:00,,0811.6,5.00,0.00,25.0,23.9,00.0,33.7,27.0,15.4,-001.1,0021.02,0010.93,0009.55
2022-11-09 22:12:00,,0811.5,5.00,0.00,25.1,23.9,00.0,33.7,27.0,15.5,-001.1,0021.73,0010.98,0009.58
2022-11-09 22:13:00,,0811.6,5.00,0.00,25.1,23.9,00.0,33.7,27.0,15.5,-000.9,0022.27,0011.04,0009.61
2022-11-09 22:14:00,,0811.7,4.99,0.00,25.1,23.9,00.0,33.8,27.0,15.4,-001.0,0021.03,0011.04,0009.65
2022-11-09 22:15:00,,0811.7,4.99,0.00,25.1,23.9,00.0,33.8,27.0,15.4,-001.1,0020.85,0011.12,0009.67
2022-11-09 22:16:00,,0811.6,5.00,0.00,25.1,23.9,00.0,33.8,27.0,15.4,-000.9,0021.38,0011.14,0009.69
2022-11-09 22:17:00,,0811.6,5.01,0.00,25.1,23.9,00.0,33.8,27.1,15.4,-001.2,0021.98,0011.19,0009.73
2022-11-09 22:18:00,,0811.7,5.01,0.00,25.1,23.9,00.0,33.8,27.1,15.4,-001.2,0022.09,0011.21,0009.77
2022-11-09 22:19:00,,0811.7,4.98,0.00,25.1,23.9,00.0,33.8,27.1,15.4,-001.8,0021.95,0011.36,0009.83
2022-11-09 22:20:00,,0811.5,4.99,0.00,25.1,23.9,00.0,33.8,27.1,15.4,-001.9,0022.08,0011.46,0009.87
2022-11-09 22:21:00,,0811.3,5.01,0.00,25.1,23.9,00.0,33.8,27.1,15.4,-001.8,0023.29,0011.55,0009.90
2022-11-09 22:22:00,,0811.5,5.01,0.00,25.2,23.9,00.0,33.8,27.1,15.4,-001.1,0023.40,0011.62,0009.93
2022-11-09 22:23:00,,0811.6,5.00,0.00,25.2,23.9,00.0,33.8,27.1,15.4,-001.2,0023.34,0011.62,0009.97
2022-11-09 22:24:00,,0811.7,5.00,0.00,25.2,24.0,00.0,33.9,27.1,15.4,-001.2,0023.03,0011.65,0010.01
2022-11-09 22:25:00,,0811.7,5.00,0.00,25.2,24.0,00.0,33.9,27.1,15.4,-001.3,0023.24,0011.70,0010.04
2022-11-09 22:26:00,,0811.6,5.00,0.00,25.2,24.0,00.0,33.9,27.1,15.4,-001.5,0022.92,0011.69,0010.08
2022-11-09 22:27:00,,0811.5,4.99,0.00,25.2,24.0,00.0,33.9,27.2,15.4,-001.4,0022.11,0011.73,0010.12
2022-11-09 22:28:00,,0811.6,5.00,0.00,25.2,24.0,00.0,33.9,27.2,15.4,-001.3,0021.40,0011.75,0010.14
2022-11-09 22:29:00,,0811.6,5.00,0.00,25.2,24.0,00.0,33.9,27.2,15.4,-001.6,0022.04,0011.74,0010.13
2022-11-09 22:30:00,,0811.6,4.99,0.00,25.2,24.0,00.0,33.9,27.2,15.4,-001.6,0023.90,0011.65,0010.09
2022-11-09 22:31:00,,0811.7,5.00,0.00,25.2,24.0,00.0,33.9,27.2,15.4,-001.4,0024.03,0011.59,0010.07
2022-11-09 22:32:00,,0811.7,5.01,0.00,25.2,24.0,00.0,33.9,27.2,15.4,-001.3,0023.84,0011.52,0010.06
2022-11-09 22:33:00,,0811.7,5.01,0.00,25.3,24.0,00.0,33.9,27.2,15.3,-001.5,0023.85,0011.47,0010.04
2022-11-09 22:34:00,,0811.6,5.00,0.00,25.3,24.0,00.0,33.9,27.2,15.3,-001.4,0024.23,0011.48,0010.04
2022-11-09 22:35:00,,0811.6,5.00,0.00,25.3,24.0,00.0,34.0,27.2,15.3,-001.3,0024.03,0011.48,0010.03
2022-11-09 22:36:00,,0811.5,4.99,0.00,25.3,24.0,00.0,34.0,27.2,15.3,-001.0,0025.19,0011.49,0010.03
2022-11-09 22:37:00,,0811.5,5.00,0.00,25.3,24.0,00.0,34.0,27.2,15.3,-000.8,0026.65,0011.53,0010.02
2022-11-09 22:38:00,,0811.6,5.01,0.00,25.3,24.1,00.0,34.0,27.2,15.3,-000.8,0028.45,0011.56,0010.02
2022-11-09 22:39:00,,0811.6,4.99,0.00,25.3,24.1,00.0,34.0,27.2,15.3,-000.3,0028.93,0011.51,0009.99
2022-11-09 22:40:00,,0811.6,5.00,0.00,25.3,24.0,00.0,34.0,27.2,15.3,-000.3,0028.05,0011.51,0009.99
2022-11-09 22:41:00,,0811.6,4.99,0.00,25.3,24.0,00.0,34.0,27.2,15.3,0000.0,0026.06,0011.54,0010.02
2022-11-09 22:42:00,,0811.6,4.99,0.00,25.3,24.0,00.0,34.0,27.2,15.3,0000.3,0025.77,0011.58,0010.03
2022-11-09 22:43:00,,0811.5,5.00,0.00,25.3,24.0,00.0,34.0,27.2,15.3,0000.5,0024.57,0011.62,0010.04
2022-11-09 22:44:00,,0811.6,5.02,0.00,25.3,24.0,00.0,34.0,27.2,15.3,0000.5,0023.85,0011.70,0010.04
2022-11-09 22:45:00,,0811.6,4.98,0.00,25.3,24.1,00.0,34.0,27.3,15.3,0000.0,0023.32,0011.69,0010.04
2022-11-09 22:46:00,,0811.6,5.01,0.00,25.3,24.1,00.0,34.0,27.3,15.3,-000.2,0024.06,0011.70,0010.05
2022-11-09 22:47:00,,0811.8,5.00,0.00,25.4,24.1,00.0,34.0,27.3,15.2,-000.2,0023.31,0011.68,0010.05
2022-11-09 22:48:00,,0811.8,5.00,0.00,25.4,24.1,00.0,34.1,27.3,15.2,-000.2,0022.39,0011.64,0010.04
2022-11-09 22:49:00,,0811.9,4.99,0.00,25.4,24.1,00.0,34.1,27.3,15.2,-000.3,0021.25,0011.61,0010.02
2022-11-09 22:50:00,,0811.8,5.00,0.00,25.4,24.1,00.0,34.1,27.3,15.2,-000.7,0020.75,0011.65,0010.01
2022-11-09 22:51:00,,0811.7,5.00,0.00,25.4,24.1,00.0,34.1,27.3,15.2,-000.6,0021.14,0011.67,0010.00
2022-11-09 22:52:00,,0811.7,5.00,0.00,25.4,24.2,00.0,34.1,27.3,15.2,-000.6,0021.27,0011.62,0009.99
2022-11-09 22:53:00,,0811.7,5.00,0.00,25.4,24.2,00.0,34.1,27.3,15.2,-001.2,0021.13,0011.56,0009.98
2022-11-09 22:54:00,,0811.6,4.99,0.00,25.4,24.2,00.0,34.1,27.3,15.2,-001.5,0021.52,0011.54,0009.99
2022-11-09 22:55:00,,0811.7,5.00,0.00,25.4,24.2,00.0,34.1,27.4,15.2,-001.7,0022.12,0011.49,0010.00
2022-11-09 22:56:00,,0811.7,5.00,0.00,25.4,24.2,00.0,34.1,27.4,15.2,-001.5,0022.06,0011.48,0010.01
2022-11-09 22:57:00,,0811.7,5.01,0.00,25.4,24.2,00.0,34.1,27.4,15.1,-001.5,0021.67,0011.51,0010.02
2022-11-09 22:58:00,,0811.6,5.00,0.00,25.4,24.2,00.0,34.1,27.4,15.1,-001.6,0020.86,0011.52,0010.03
2022-11-09 22:59:00,,0811.6,5.00,0.00,25.5,24.2,00.0,34.1,27.4,15.1,-001.7,0021.05,0011.48,0010.03
